Content
SEND FEEDBACK

Daily
Averages
Monthly
Summary
France

LYON, FRANCE


Home > Europe > France
Elevation: 659 feet     Latitude: 45 43N     Longitude: 004 57E

WEATHER
 
SELECT A DAY
Number of Records: 153,919;   Date Range: 7/1/96 - 8/10/14
 
SHARE

PRINT THIS DATA

[ ← Previous Day ]
WEATHER ALMANAC - FEBRUARY 9, 2013
[ Next Day → ]
[ °C ]   °F
Weather ElementAverageHighLow
Temperature30.4 °F37.4 °F (1:00 pm)23 °F (5:30 am)
Dewpoint24.6 °F28.4 °F (5:30 pm)19.4 °F (2:00 pm)
Humidity80.3 %100 % (2:30 am)48 % (2:00 pm)
Barometer30.07 in30.12 in (10:30 am)30.04 in (9:30 pm)
Wind Speed2.7 mph8.1 mph (10:30 am)
Weather ElementAverage
Visibility4.9 mi
Wind DirectionESE (127.4 °)

Weather ElementTotal
Precipitation---
Heating Degree Days34.8 (Base 65)
Averaged from 46 records on February 9, 2013
WEATHER CONDITIONS BREAKOUT
WIND DIRECTION BREAKOUT
WEATHER BY HOUR - FEBRUARY 9, 2013
[ °C ]   °F
Local TimeTemperatureDewpointHumidityBarometerVisibilityWind DirectionWind SpeedGust SpeedPrecipitationEventsConditions
12:30 AM30.2 °F26.6 °F86 %30.09 inVariable3.5 mphSnowLight Snow
1:00 AM28.4 °F24.8 °F86 %30.09 in0.1 miCalmMostly Cloudy
1:30 AM26.6 °F23.0 °F86 %30.09 in0.1 miCalmFogLight Freezing Fog
2:00 AM24.8 °F23.0 °F93 %30.06 in1.4 miSSE (150°)1.2 mphMist
2:30 AM24.8 °F24.8 °F100 %30.06 in3.1 miVariable2.3 mphMist
3:00 AM26.6 °F24.8 °F93 %30.06 inSE (130°)3.5 mphOvercast
3:30 AM26.6 °F24.8 °F93 %30.06 inCalmMostly Cloudy
4:00 AM24.8 °F23.0 °F93 %30.06 in0.7 miCalmMostly Cloudy
4:30 AM24.8 °F23.0 °F93 %30.06 inCalmMostly Cloudy
5:00 AM24.8 °F23.0 °F93 %30.06 inVariable1.2 mphMist
5:30 AM23.0 °F21.2 °F93 %30.06 inVariable1.2 mphMist
6:00 AM23.0 °F21.2 °F93 %30.06 in3.1 miCalmMist
6:30 AM23.0 °F21.2 °F93 %30.09 in3.7 miCalm
7:00 AM23.0 °F21.2 °F93 %30.09 in3.7 miCalm
7:30 AM24.8 °F23.0 °F93 %30.09 in4.3 miENE (70°)2.3 mphMostly Cloudy
8:00 AM23.0 °F21.2 °F93 %30.09 in4.3 miCalmScattered Clouds
8:30 AM26.6 °F24.8 °F93 %30.09 in3.7 miCalm
9:00 AM30.2 °F26.6 °F86 %30.09 in6.2 miNorth (350°)5.8 mph
9:30 AM32.0 °F26.6 °F80 %30.09 in6.2 miNorth (360°)5.8 mph
10:30 AM32.0 °F26.6 °F80 %30.12 in6.2 miNorth (360°)8.1 mph
11:00 AM33.8 °F26.6 °F75 %30.12 in6.2 miNorth (360°)6.9 mph
11:30 AM35.6 °F26.6 °F70 %30.12 in6.2 miNorth (360°)6.9 mph
12:00 PM35.6 °F24.8 °F65 %30.12 in6.2 miNorth (10°)5.8 mph
12:30 PM35.6 °F26.6 °F70 %30.09 in6.2 miNE (40°)5.8 mph
1:00 PM37.4 °F24.8 °F60 %30.09 in6.2 miNNW (340°)3.5 mphOvercast
1:30 PM37.4 °F21.2 °F52 %30.09 in6.2 miVariable3.5 mphOvercast
2:00 PM37.4 °F19.4 °F48 %30.06 in6.2 miNNW (330°)4.6 mphOvercast
2:30 PM37.4 °F21.2 °F52 %30.06 in6.2 miNW (320°)4.6 mphOvercast
3:00 PM35.6 °F19.4 °F52 %30.06 in6.2 miWNW (290°)3.5 mphOvercast
3:30 PM35.6 °F21.2 °F56 %30.06 in6.2 miNorth (350°)4.6 mphOvercast
4:00 PM35.6 °F21.2 °F56 %30.06 in6.2 miNorth (350°)4.6 mphOvercast
4:30 PM35.6 °F23.0 °F60 %30.06 in6.2 miCalmOvercast
5:00 PM33.8 °F24.8 °F70 %30.06 in6.2 miVariable3.5 mphSnowLight Snow
5:30 PM33.8 °F28.4 °F81 %30.06 in6.2 miWest (270°)4.6 mphRain-SnowLight Snow
6:00 PM32.0 °F28.4 °F87 %30.06 in4.3 miWest (260°)4.6 mphRain-SnowLight Snow
6:30 PM32.0 °F28.4 °F87 %30.06 in0.7 miWest (270°)3.5 mphSnowLight Snow
7:00 PM30.2 °F26.6 °F86 %30.06 inVariable1.2 mphSnowLight Snow
7:30 PM32.0 °F28.4 °F87 %30.06 in5.6 miVariable2.3 mphOvercast
8:00 PM32.0 °F28.4 °F87 %30.06 inVariable2.3 mphSnowLight Snow
8:30 PM32.0 °F26.6 °F80 %30.06 in6.2 miNNW (340°)3.5 mphOvercast
9:00 PM32.0 °F26.6 °F80 %30.06 in6.2 miWNW (300°)4.6 mphOvercast
9:30 PM30.2 °F26.6 °F86 %30.04 in6.2 miVariable3.5 mphOvercast
10:00 PM32.0 °F26.6 °F80 %30.04 in5.6 miCalmOvercast
10:30 PM32.0 °F26.6 °F80 %30.04 in6.2 miCalm
11:00 PM30.2 °F26.6 °F86 %30.04 in6.2 miWSW (250°)2.3 mphOvercast
11:30 PM30.2 °F26.6 °F86 %30.04 in4.3 miVariable1.2 mphOvercast
Hourly data recorded from LFLY, located miles away from Lyon, France







STORIES FROM OUR PARTNERS